GW3467 Weather Reports


time (UTC)temp
C
wind
direction
speed
KPH
gust
KPH
rain 1hr
cm
rain 24hr
cm
rain mn
cm
humidity
%
barometer
mb
20260508115458 7 178 1.6 4.8 0.00 0.00 0.00 81 1014.5
20260508114955 7 179 0.0 3.2 0.00 0.00 0.00 81 1014.3
20260508114452 6 198 0.0 1.6 0.00 0.00 0.00 82 1014.4
20260508113948 6 192 3.2 4.8 0.00 0.00 0.00 83 1014.3
20260508113446 6 181 0.0 4.8 0.00 0.00 0.00 82 1014.3
20260508112943 6 197 1.6 4.8 0.00 0.00 0.00 83 1014.2
20260508112439 6 184 0.0 3.2 0.00 0.00 0.00 84 1014.3
20260508111936 6 189 3.2 3.2 0.00 0.00 0.00 83 1014.4
20260508111433 6 190 3.2 9.7 0.00 0.00 0.00 84 1014.1
20260508110930 6 191 3.2 4.8 0.00 0.00 0.00 84 1014.2
20260508110428 6 193 1.6 6.4 0.00 0.00 0.00 85 1014.1
20260508105927 6 188 3.2 4.8 0.00 0.00 0.00 84 1014.1
20260508105424 6 198 3.2 6.4 0.00 0.00 0.00 84 1013.8
20260508104922 6 191 1.6 9.7 0.00 0.00 0.00 85 1014.0
20260508104419 6 178 0.0 4.8 0.00 0.00 0.00 84 1013.9
20260508103916 6 190 0.0 4.8 0.00 0.00 0.00 83 1013.8
20260508103413 6 182 4.8 6.4 0.00 0.00 0.00 82 1013.9
20260508102910 6 200 4.8 6.4 0.00 0.00 0.00 82 1013.9
20260508102408 6 177 4.8 6.4 0.00 0.00 0.00 80 1013.6
20260508101905 6 190 1.6 3.2 0.00 0.00 0.00 81 1013.8
20260508101402 6 142 1.6 4.8 0.00 0.00 0.00 81 1013.6
20260508100859 6 140 1.6 4.8 0.00 0.00 0.00 82 1013.4
20260508100358 6 194 3.2 3.2 0.00 0.00 0.00 83 1013.6
20260508095853 6 143 0.0 3.2 0.00 0.00 0.00 82 1013.9
20260508095352 6 176 1.6 3.2 0.00 0.00 0.00 83 1013.8
20260508094848 6 166 0.0 1.6 0.00 0.00 0.00 83 1013.6
20260508094345 6 179 0.0 3.2 0.00 0.00 0.00 82 1013.8
20260508093842 6 183 0.0 1.6 0.00 0.00 0.00 82 1013.8
20260508093339 6 188 0.0 3.2 0.00 0.00 0.00 82 1013.9
20260508092837 6 171 0.0 1.6 0.00 0.00 0.00 82 1014.1
20260508092335 6 166 0.0 3.2 0.00 0.00 0.00 82 1014.1
20260508091833 6 206 3.2 4.8 0.00 0.00 0.00 82 1014.0
20260508091329 6 173 1.6 1.6 0.00 0.00 0.00 82 1014.0
20260508090827 6 190 0.0 3.2 0.00 0.00 0.00 83 1014.2
20260508090325 6 170 0.0 0.0 0.00 0.00 0.00 83 1014.3
20260508085820 6 170 0.0 0.0 0.00 0.00 0.00 83 1014.0
20260508085318 6 173 0.0 1.6 0.00 0.00 0.00 82 1014.1
20260508084814 6 173 0.0 0.0 0.00 0.00 0.00 83 1014.1
20260508084311 6 161 1.6 3.2 0.00 0.00 0.00 83 1013.9
20260508083809 7 167 0.0 0.0 0.00 0.00 0.00 81 1014.2
20260508083306 7 178 0.0 0.0 0.00 0.00 0.00 80 1014.2
20260508082805 7 179 1.6 1.6 0.00 0.00 0.00 80 1014.1
20260508082306 7 183 0.0 1.6 0.00 0.00 0.00 80 1014.2
20260508081801 6 184 1.6 1.6 0.00 0.00 0.00 83 1014.1
20260508081257 7 186 0.0 0.0 0.00 0.00 0.00 82 1014.0
20260508080754 7 186 0.0 0.0 0.00 0.00 0.00 83 1014.1
20260508080253 7 186 0.0 0.0 0.00 0.00 0.00 84 1014.2
20260508075748 7 188 0.0 0.0 0.00 0.00 0.00 81 1014.2
20260508075245 8 189 0.0 0.0 0.00 0.00 0.00 77 1014.2
20260508074743 8 189 0.0 0.0 0.00 0.00 0.00 74 1014.1
20260508074240 8 189 0.0 1.6 0.00 0.00 0.00 74 1014.1
20260508073737 8 207 0.0 0.0 0.00 0.00 0.00 74 1014.2
20260508073235 8 207 0.0 0.0 0.00 0.00 0.00 73 1014.4
20260508072731 8 208 0.0 1.6 0.00 0.00 0.00 73 1014.3
20260508072228 8 207 0.0 0.0 0.00 0.00 0.00 73 1014.5
20260508071726 8 208 0.0 1.6 0.00 0.00 0.00 73 1014.3
20260508071224 8 205 0.0 0.0 0.00 0.00 0.00 72 1014.4
20260508070721 8 204 0.0 4.8 0.00 0.00 0.00 72 1014.7
20260508070219 8 206 0.0 4.8 0.00 0.00 0.00 73 1014.7
20260508065716 8 206 1.6 3.2 0.00 0.00 0.00 73 1014.7
20260508065214 8 235 3.2 6.4 0.00 0.00 0.00 73 1015.1
20260508064711 8 271 3.2 6.4 0.00 0.00 0.00 75 1015.0
20260508064209 7 200 1.6 4.8 0.00 0.00 0.00 76 1015.0
20260508063707 8 215 1.6 4.8 0.00 0.00 0.00 76 1015.0
20260508063204 7 216 6.4 9.7 0.00 0.00 0.00 76 1014.9
20260508062701 7 201 1.6 1.6 0.00 0.00 0.00 79 1015.0
20260508062159 6 206 1.6 4.8 0.00 0.00 0.00 87 1015.4
20260508061655 6 209 0.0 1.6 0.00 0.00 0.00 87 1015.1
20260508061153 6 214 1.6 1.6 0.00 0.00 0.00 86 1015.2
20260508060649 7 206 0.0 1.6 0.00 0.00 0.00 85 1015.2
20260508060147 7 214 1.6 3.2 0.00 0.00 0.00 82 1015.0
20260508055642 7 173 0.0 1.6 0.00 0.00 0.00 78 1014.8
20260508055139 7 173 0.0 0.0 0.00 0.00 0.00 73 1014.5
20260508054636 7 173 0.0 0.0 0.00 0.00 0.00 71 1014.7
20260508054134 7 173 0.0 0.0 0.00 0.00 0.00 70 1014.6
20260508053630 7 173 0.0 1.6 0.00 0.00 0.00 70 1014.6
20260508053128 7 173 0.0 1.6 0.00 0.00 0.00 69 1014.5
20260508052625 7 173 1.6 1.6 0.00 0.00 0.00 70 1014.5
20260508052122 7 173 0.0 1.6 0.00 0.00 0.00 73 1014.6
20260508051618 7 173 0.0 0.0 0.00 0.00 0.00 74 1014.5
20260508051113 7 172 1.6 1.6 0.00 0.00 0.00 85 1014.4
20260508050610 7 173 0.0 1.6 0.00 0.00 0.00 84 1014.5
20260508050108 7 173 0.0 1.6 0.00 0.00 0.00 82 1014.8
20260508045604 7 173 0.0 0.0 0.00 0.00 0.00 81 1014.7
20260508045102 7 172 0.0 0.0 0.00 0.00 0.00 79 1014.8
20260508044559 7 173 0.0 0.0 0.00 0.00 0.00 76 1014.8
20260508044055 7 173 0.0 1.6 0.00 0.00 0.00 74 1014.7
20260508043551 7 173 1.6 3.2 0.00 0.00 0.00 70 1015.0
20260508043049 7 173 1.6 1.6 0.00 0.00 0.00 80 1015.0
20260508042545 7 173 0.0 0.0 0.00 0.00 0.00 74 1015.0
20260508042043 7 172 1.6 1.6 0.00 0.00 0.00 76 1015.0
20260508041539 7 172 1.6 3.2 0.00 0.00 0.00 72 1014.8
20260508041035 7 173 0.0 0.0 0.00 0.00 0.00 72 1014.9
20260508040532 6 173 0.0 0.0 0.00 0.00 0.00 77 1015.1
20260508040030 7 173 0.0 0.0 0.00 0.00 0.00 77 1014.8
20260508035527 7 173 0.0 0.0 0.00 0.00 0.00 80 1014.7
20260508035024 7 173 0.0 0.0 0.00 0.00 0.00 78 1014.9
20260508034521 7 174 0.0 0.0 0.00 0.00 0.00 72 1015.2
20260508034018 7 174 0.0 0.0 0.00 0.00 0.00 72 1015.0
20260508033516 7 174 0.0 0.0 0.00 0.00 0.00 74 1015.0
20260508033014 7 174 0.0 0.0 0.00 0.00 0.00 73 1014.9
20260508032510 7 174 0.0 0.0 0.00 0.00 0.00 73 1014.7
20260508032008 7 173 0.0 0.0 0.00 0.00 0.00 74 1014.7
20260508031505 7 174 0.0 0.0 0.00 0.00 0.00 78 1014.8
20260508030959 7 174 0.0 0.0 0.00 0.00 0.00 78 1014.7
20260508030457 7 174 0.0 0.0 0.00 0.00 0.00 79 1014.7
20260508025955 7 174 0.0 0.0 0.00 0.00 0.00 78 1014.7
20260508025450 7 174 0.0 1.6 0.00 0.00 0.00 73 1014.9
20260508024948 7 189 1.6 3.2 0.00 0.00 0.00 76 1014.8
20260508024444 7 194 1.6 1.6 0.00 0.00 0.00 77 1015.0
20260508023941 8 175 0.0 0.0 0.00 0.00 0.00 67 1014.8
20260508023438 8 174 0.0 0.0 0.00 0.00 0.00 62 1014.5
20260508022935 8 198 0.0 1.6 0.00 0.00 0.00 61 1014.8
20260508022430 8 189 1.6 3.2 0.00 0.00 0.00 61 1014.8
20260508021927 8 190 0.0 1.6 0.00 0.00 0.00 62 1014.8
20260508021424 8 191 0.0 0.0 0.00 0.00 0.00 61 1014.6
20260508020919 8 196 1.6 3.2 0.00 0.00 0.00 60 1014.8
20260508020418 9 190 0.0 1.6 0.00 0.00 0.00 59 1014.8
20260508015914 8 193 0.0 0.0 0.00 0.00 0.00 59 1014.7
20260508015412 8 188 0.0 0.0 0.00 0.00 0.00 59 1014.7
20260508014908 8 187 0.0 0.0 0.00 0.00 0.00 59 1014.7
20260508014406 9 188 0.0 0.0 0.00 0.00 0.00 58 1014.8
20260508013902 9 189 0.0 1.6 0.00 0.00 0.00 59 1014.5
20260508013357 9 175 0.0 1.6 0.00 0.00 0.00 59 1014.7
20260508012855 8 188 0.0 0.0 0.00 0.00 0.00 59 1014.6
20260508012352 9 188 0.0 0.0 0.00 0.00 0.00 59 1014.5
20260508011850 9 186 0.0 1.6 0.00 0.00 0.00 58 1014.5
20260508011348 9 192 0.0 0.0 0.00 0.00 0.00 59 1014.4
20260508010844 8 192 0.0 1.6 0.00 0.00 0.00 58 1014.3
20260508010342 9 192 0.0 0.0 0.00 0.00 0.00 57 1014.5
20260508005839 9 187 0.0 1.6 0.00 0.00 0.00 57 1014.3
20260508005335 9 187 0.0 1.6 0.00 0.00 0.00 57 1014.2
20260508004831 9 189 0.0 0.0 0.00 0.00 0.00 58 1014.4
20260508004328 10 189 0.0 0.0 0.00 0.00 0.00 57 1014.2
20260508003824 10 189 0.0 0.0 0.00 0.00 0.00 56 1014.3
20260508003322 10 189 0.0 0.0 0.00 0.00 0.00 57 1014.2
20260508002819 10 191 0.0 0.0 0.00 0.00 0.00 56 1014.2
20260508002315 10 192 0.0 0.0 0.00 0.00 0.00 54 1014.1
20260508001811 11 206 0.0 3.2 0.00 0.00 0.00 53 1014.2
20260508001308 11 212 3.2 4.8 0.00 0.00 0.00 52 1014.2
20260508000803 11 216 1.6 3.2 0.00 0.00 0.00 53 1014.0
20260508000301 11 245 3.2 9.7 0.00 0.00 0.00 50 1014.1
20260507235757 11 219 3.2 4.8 0.00 0.00 0.00 51 1014.1
20260507235255 11 219 1.6 9.7 0.00 0.00 0.00 48 1013.9
20260507234751 11 235 6.4 9.7 0.00 0.00 0.00 49 1013.8
20260507234248 11 222 1.6 3.2 0.00 0.00 0.00 54 1014.1
20260507233744 12 204 1.6 3.2 0.00 0.00 0.00 50 1013.6
20260507233242 12 27 4.8 4.8 0.00 0.00 0.00 48 1013.9
20260507232740 12 223 3.2 6.4 0.00 0.00 0.00 49 1013.8
20260507232236 12 211 0.0 3.2 0.00 0.00 0.00 50 1014.0
20260507231733 12 232 6.4 11.3 0.00 0.00 0.00 49 1013.8
20260507231230 12 291 4.8 4.8 0.00 0.00 0.00 49 1014.0
20260507230726 11 297 6.4 6.4 0.00 0.00 0.00 50 1013.9
20260507230224 11 285 3.2 4.8 0.00 0.00 0.00 50 1014.0
20260507225723 11 308 8.0 11.3 0.00 0.00 0.00 50 1014.0
20260507225220 12 302 3.2 9.7 0.00 0.00 0.00 51 1014.0
20260507224716 12 16 6.4 11.3 0.00 0.00 0.00 49 1014.1
20260507224213 13 302 6.4 9.7 0.00 0.00 0.00 48 1014.3
20260507223709 13 284 8.0 11.3 0.00 0.00 0.00 49 1014.1
20260507223206 13 277 6.4 11.3 0.00 0.00 0.00 46 1014.0
20260507222703 13 1 3.2 11.3 0.00 0.00 0.00 51 1014.1
20260507222159 12 295 9.7 14.5 0.00 0.00 0.00 47 1014.0
20260507221656 12 305 16.1 20.9 0.00 0.00 0.00 48 1014.0
20260507221152 11 250 1.6 11.3 0.00 0.00 0.00 51 1014.1
20260507220649 12 247 8.0 14.5 0.00 0.00 0.00 49 1014.0
20260507220147 12 233 3.2 11.3 0.00 0.00 0.00 50 1014.0
20260507215643 12 322 14.5 17.7 0.00 0.00 0.00 47 1014.1
20260507215140 12 358 9.7 14.5 0.00 0.00 0.00 48 1013.9
20260507214637 13 312 9.7 16.1 0.00 0.00 0.00 46 1014.0
20260507214134 13 267 11.3 22.5 0.00 0.00 0.00 45 1014.0
20260507213630 13 10 6.4 11.3 0.00 0.00 0.00 47 1013.6
20260507213128 13 330 9.7 12.9 0.00 0.00 0.00 45 1013.6
20260507212623 14 23 4.8 12.9 0.00 0.00 0.00 45 1013.6
20260507212120 13 320 6.4 16.1 0.00 0.00 0.00 45 1013.4
20260507211617 13 318 11.3 17.7 0.00 0.00 0.00 46 1013.6
20260507211113 13 295 9.7 12.9 0.00 0.00 0.00 46 1013.6
20260507210611 13 300 6.4 12.9 0.00 0.00 0.00 48 1013.9
20260507210107 13 296 6.4 20.9 0.00 0.00 0.00 51 1013.5
20260507205603 13 221 6.4 12.9 0.00 0.00 0.00 49 1013.5
20260507205100 13 292 8.0 12.9 0.00 0.00 0.00 47 1013.4
20260507204556 13 314 12.9 22.5 0.00 0.00 0.00 47 1013.2
20260507204054 13 264 8.0 14.5 0.00 0.00 0.00 50 1013.4
20260507203552 13 293 4.8 6.4 0.00 0.00 0.00 52 1013.4
20260507203049 12 332 3.2 12.9 0.00 0.00 0.00 52 1013.1
20260507202544 12 26 9.7 14.5 0.00 0.00 0.00 52 1013.5
20260507202041 12 255 9.7 22.5 0.00 0.00 0.00 52 1013.6
20260507201536 12 206 3.2 12.9 0.00 0.00 0.00 52 1013.5
20260507201033 12 251 6.4 14.5 0.00 0.00 0.00 49 1013.4
20260507200529 13 69 4.8 11.3 0.00 0.00 0.00 51 1013.4
20260507200025 12 287 3.2 11.3 0.00 0.00 0.00 57 1013.6
20260507195522 12 316 6.4 12.9 0.00 0.00 0.00 53 1013.4
20260507195020 13 309 6.4 14.5 0.00 0.00 0.00 52 1013.6
20260507194516 13 336 6.4 16.1 0.00 0.00 0.00 54 1013.5
20260507194012 12 226 6.4 11.3 0.00 0.00 0.00 56 1013.6
20260507193509 12 279 14.5 25.7 0.00 0.00 0.00 54 1013.6
20260507193006 13 269 14.5 20.9 0.00 0.00 0.00 51 1013.6
20260507192502 13 260 8.0 17.7 0.00 0.00 0.00 52 1013.6
20260507191959 13 271 17.7 22.5 0.00 0.00 0.00 54 1013.5
20260507191454 13 300 9.7 20.9 0.00 0.00 0.00 55 1013.8
20260507190952 12 305 11.3 16.1 0.00 0.00 0.00 53 1013.8
20260507190449 12 235 4.8 17.7 0.00 0.00 0.00 57 1014.1
20260507185948 13 227 6.4 14.5 0.00 0.00 0.00 59 1013.6
20260507185445 13 251 6.4 16.1 0.00 0.00 0.00 54 1013.8
20260507184942 13 245 6.4 16.1 0.00 0.00 0.00 56 1013.8
20260507184440 13 219 6.4 17.7 0.00 0.00 0.00 61 1013.8
20260507183938 13 249 6.4 14.5 0.00 0.00 0.00 55 1013.9
20260507183434 13 221 3.2 9.7 0.00 0.00 0.00 54 1013.8
20260507182931 13 264 9.7 11.3 0.00 0.00 0.00 51 1013.8
20260507182427 13 314 12.9 20.9 0.00 0.00 0.00 49 1013.8
20260507181923 13 174 4.8 12.9 0.00 0.00 0.00 56 1013.8
20260507181419 12 275 6.4 16.1 0.00 0.00 0.00 58 1013.8
20260507180916 12 216 1.6 16.1 0.00 0.00 0.00 58 1013.9
20260507180413 12 242 6.4 16.1 0.00 0.00 0.00 56 1014.0
20260507175909 12 221 8.0 24.1 0.00 0.00 0.00 53 1013.9
20260507175406 12 278 9.7 20.9 0.00 0.00 0.00 54 1013.9
20260507174903 12 279 8.0 16.1 0.00 0.00 0.00 49 1013.9
20260507174401 12 237 8.0 12.9 0.00 0.00 0.00 54 1014.0
20260507173858 12 229 8.0 12.9 0.00 0.00 0.00 58 1014.2
20260507173355 12 187 8.0 20.9 0.00 0.00 0.00 56 1014.1
20260507172851 12 292 9.7 17.7 0.00 0.00 0.00 58 1014.2
20260507172348 12 265 4.8 16.1 0.00 0.00 0.00 54 1014.3
20260507171844 12 238 6.4 12.9 0.00 0.00 0.00 55 1014.2
20260507171341 12 240 6.4 12.9 0.00 0.00 0.00 56 1014.3
20260507170838 12 221 3.2 11.3 0.00 0.00 0.00 58 1014.4
20260507170334 12 22 6.4 14.5 0.00 0.00 0.00 49 1014.4
20260507165830 12 207 4.8 6.4 0.00 0.00 0.00 53 1014.3
20260507165326 12 183 4.8 12.9 0.00 0.00 0.00 55 1014.3
20260507164822 12 258 6.4 11.3 0.00 0.00 0.00 52 1014.3
20260507164320 12 281 4.8 9.7 0.00 0.00 0.00 54 1014.4
20260507163817 12 308 4.8 12.9 0.00 0.00 0.00 54 1014.6
20260507163315 12 236 6.4 11.3 0.00 0.00 0.00 55 1014.5
20260507162810 12 246 3.2 12.9 0.00 0.00 0.00 55 1014.4
20260507162307 12 232 6.4 11.3 0.00 0.00 0.00 54 1014.4
20260507161804 12 257 8.0 16.1 0.00 0.00 0.00 54 1014.2
20260507161300 12 284 14.5 16.1 0.00 0.00 0.00 51 1014.4
20260507160756 11 310 6.4 11.3 0.00 0.00 0.00 53 1014.5
20260507160252 11 208 3.2 12.9 0.00 0.00 0.00 51 1014.3
20260507155748 12 274 6.4 11.3 0.00 0.00 0.00 58 1014.4
20260507155244 12 277 8.0 12.9 0.00 0.00 0.00 62 1014.3
20260507154741 12 208 1.6 12.9 0.00 0.00 0.00 57 1014.2
20260507154239 11 200 3.2 11.3 0.00 0.00 0.00 59 1014.2
20260507153735 11 244 6.4 12.9 0.00 0.00 0.00 53 1014.1
20260507153232 12 250 9.7 16.1 0.00 0.00 0.00 55 1014.3
20260507152728 11 234 3.2 6.4 0.00 0.00 0.00 61 1014.4
20260507152225 11 266 4.8 12.9 0.00 0.00 0.00 56 1014.3
20260507151721 11 184 3.2 14.5 0.00 0.00 0.00 56 1014.3
20260507151218 11 270 8.0 11.3 0.00 0.00 0.00 57 1014.4
20260507150714 11 307 8.0 11.3 0.00 0.00 0.00 57 1014.3
20260507150211 11 266 8.0 14.5 0.00 0.00 0.00 59 1014.3
20260507145707 11 228 6.4 16.1 0.00 0.00 0.00 58 1014.5
20260507145204 11 255 9.7 12.9 0.00 0.00 0.00 57 1014.4
20260507144700 11 251 12.9 16.1 0.00 0.00 0.00 56 1014.3
20260507144159 11 291 6.4 9.7 0.00 0.00 0.00 58 1014.5
20260507143655 11 274 4.8 11.3 0.00 0.00 0.00 66 1014.4
20260507143152 10 244 3.2 9.7 0.00 0.00 0.00 63 1014.3
20260507142648 10 292 6.4 9.7 0.00 0.00 0.00 63 1014.6
20260507142144 10 195 1.6 6.4 0.00 0.00 0.00 68 1014.4
20260507141641 10 240 4.8 11.3 0.00 0.00 0.00 62 1014.5
20260507141138 10 196 1.6 6.4 0.00 0.00 0.00 67 1014.5
20260507140634 10 201 6.4 6.4 0.00 0.00 0.00 67 1014.5
20260507140132 10 319 4.8 6.4 0.00 0.00 0.00 69 1014.7
20260507135629 10 187 1.6 6.4 0.00 0.00 0.00 68 1014.8
20260507135126 10 285 3.2 6.4 0.00 0.00 0.00 67 1014.8
20260507134622 10 221 6.4 9.7 0.00 0.00 0.00 66 1014.7
20260507134119 10 211 3.2 6.4 0.00 0.00 0.00 69 1014.9
20260507133614 10 347 9.7 14.5 0.00 0.00 0.00 66 1014.9
20260507133112 10 192 8.0 11.3 0.00 0.00 0.00 68 1015.0
20260507132609 9 312 3.2 6.4 0.00 0.00 0.00 70 1014.9
20260507132105 9 277 6.4 11.3 0.00 0.00 0.00 69 1014.9
20260507131602 10 262 6.4 9.7 0.00 0.00 0.00 68 1014.8
20260507131100 9 166 3.2 4.8 0.00 0.00 0.00 71 1014.8
20260507130556 8 196 0.0 11.3 0.00 0.00 0.00 74 1014.9
20260507130054 8 212 4.8 12.9 0.00 0.00 0.00 73 1014.9
20260507125553 8 44 3.2 6.4 0.00 0.00 0.00 73 1014.9
20260507125050 8 208 3.2 9.7 0.00 0.00 0.00 75 1014.8
20260507124546 7 301 3.2 6.4 0.00 0.00 0.00 75 1014.7
20260507124044 7 209 3.2 6.4 0.00 0.00 0.00 75 1014.8
20260507123542 7 256 3.2 4.8 0.00 0.00 0.00 79 1014.7
20260507123038 7 203 0.0 3.2 0.00 0.00 0.00 80 1014.8
20260507122534 6 218 1.6 1.6 0.00 0.00 0.00 79 1014.6
20260507122030 6 201 0.0 3.2 0.00 0.00 0.00 80 1014.9
20260507121526 6 246 3.2 3.2 0.00 0.00 0.00 80 1014.7
20260507121021 6 215 1.6 3.2 0.00 0.00 0.00 81 1014.5
20260507120518 6 213 0.0 3.2 0.00 0.00 0.00 81 1014.6
20260507120015 6 213 0.0 1.6 0.00 0.00 0.00 83 1014.5